{"data":{"norad_id":66316,"intl_designator":"2025-252A","name":"QPS-SAR-14 (YACHIHOKO-I)","alt_names":[],"object_type":"PAYLOAD","status":"ACTIVE","operator":null,"country":"JPN","launch_date":"2025-11-05","launch_site_code":"RLLB","launch_vehicle":null,"mission":null,"orbit_class":"UNKNOWN","rcs_meters":null,"size_class":null,"mass_kg":null,"dimensions":null,"purposes":[],"wikipedia_slug":null,"has_3d_model":false,"image_url":null,"decayed_at":null,"tle_current":{"epoch":"2026-09-20T05:22:08.216544Z","epoch_age_seconds":155602,"freshness":"FRESH","line1":"1 66316U 25252A   26263.22370621  .00002386  00000+0  20284-3 0  9997","line2":"2 66316  42.0055 329.2195 0003826 163.1918 196.9035 15.00058778 47789","mean_motion":15.00058778,"eccentricity":0.0003826,"inclination_deg":42.0055,"raan_deg":329.2195,"arg_perigee_deg":163.1918,"mean_anomaly_deg":196.9035,"bstar":0.00020284,"rev_number":4778,"period_min":95.996238355401,"perigee_km":564.05782226771,"apogee_km":569.3720229589,"semimajor_km":6944.8519226133,"source":"CELESTRAK","updated_at":"2026-09-21T09:00:15.906830Z"}}}